Location: ??
(35.4032°N, 139.3073°E)
Time: 10:33:40
(UTC+00:00)

Cosmos 2237 Rocket - Pass Details

Date: 13 April 2024
Orbit: 833 x 851 km, 71.0° (Epoch: 22 May)

Event Time Altitude Azimuth Distance (km) Brightness Sun altitude
Exits shadow 17:00:18 32° 89° (E) 1,419 3.6 -34.7°
Drops below altitude 10° 17:04:35 10° 42° (NE) 2,468 5.4 -34.1°
Sets 17:07:15 0° 33° (NNE) 3,410 6.4 -33.8°
